Flag for Vietnam Weather past 2 weeks in Hanoi, Vietnam

Now
90 °F

Broken clouds.


Feels Like: 100 °F
Forecast: 75 / 94 °F
Wind: 2 mph from North

Location: Ha Noi Airport

Current Time: Oct 2, 2014 at 11:48:32 AM

Latest Report: Oct 2, 2014 at 11:30 AM


Visibility: N/A

Pressure: 29.89 "Hg

Humidity: 63%

Dew point: 75 °F

Location of HanoiLocation

Historic Weather in Hanoi — Graph

°F

Hanoi temperature yesterday

Maximum temperature yesterday: 93 °F (at 1:30 PM)
Minimum temperature yesterday: 77 °F (at 6:00 AM)
Average temperature yesterday: 85 °F

Past Weeks' High & Low Weather Summary

 TemperatureHumidityPressure
High93 °F (Sep 25, 1:30 PM)100% (Sep 17, 10:00 AM)29.95 "Hg (Sep 17, 10:00 AM)
Low73 °F (Sep 22, 5:00 AM)41% (Sep 24, 2:00 PM)29.50 "Hg (Sep 17, 10:00 AM)
Average83 °F82%29.82 "Hg
* Reported Sep 17 10:00 AM — Oct 2 10:30 AM, Hanoi, Weather by CustomWeather, © 2014

Note: Actual official high and low records may vary slightly from our data, if they occured in-between our weather recording intervals... More about our weather records

Advertising

Hanoi weather history for previous 24 hours

 ConditionsComfort  
Time TempWeatherWind HumidityBarometerVisibility
10:30 AM
Oct 2
90 °FScattered clouds.3 mph63%29.92 "HgN/A
10:00 AM88 °FScattered clouds.3 mph66%29.92 "HgN/A
9:30 AM88 °FPassing clouds.5 mph66%29.92 "HgN/A
9:00 AM86 °FClear.5 mph70%29.92 "Hg6 mi
8:30 AM84 °FClear.7 mph84%29.92 "Hg4 mi
8:00 AM82 °FClear.5 mph89%29.92 "Hg4 mi
7:00 AM79 °FFog.2 mph94%29.92 "Hg2 mi
6:30 AM79 °FFog.3 mph94%29.89 "Hg2 mi
6:00 AM77 °FFog.5 mph94%29.89 "Hg2 mi
5:30 AM77 °FFog.6 mph94%29.89 "Hg1 mi
5:00 AM77 °FFog.5 mph94%29.89 "Hg1 mi
4:30 AM77 °FFog.5 mph94%29.86 "Hg1 mi
4:00 AM79 °FFog.5 mph94%29.86 "Hg2 mi
3:30 AM79 °FFog.3 mph94%29.86 "Hg2 mi
3:00 AM79 °FFog.3 mph94%29.86 "Hg2 mi
2:30 AM79 °FFog.5 mph94%29.86 "Hg2 mi
2:00 AM79 °FClear.3 mph94%29.86 "Hg2 mi
1:30 AM79 °FClear.3 mph94%29.86 "Hg2 mi
1:00 AM79 °FClear.3 mph100%29.86 "Hg2 mi
12:30 AM81 °FClear.3 mph94%29.86 "Hg4 mi
12:00 AM81 °FClear.5 mph89%29.86 "Hg4 mi
11:30 PM
Oct 1
82 °FClear.7 mph79%29.86 "Hg3 mi
11:00 PM82 °FClear.7 mph79%29.86 "Hg4 mi
10:30 PM82 °FClear.7 mph79%29.86 "Hg3 mi
10:00 PM82 °FClear.8 mph79%29.86 "Hg2 mi
9:30 PM84 °FClear.8 mph74%29.86 "Hg3 mi
9:00 PM84 °FClear.8 mph70%29.86 "Hg3 mi
8:30 PM86 °FClear.9 mph66%29.83 "Hg3 mi
8:00 PM84 °FClear.6 mph70%29.83 "Hg2 mi
7:30 PM86 °FClear.7 mph66%29.83 "Hg3 mi
7:00 PM86 °FClear.7 mph66%29.80 "Hg2 mi
6:30 PM86 °FClear.6 mph66%29.80 "Hg3 mi
6:00 PM88 °FClear.7 mph62%29.80 "Hg3 mi
5:30 PM90 °FClear.8 mph55%29.80 "Hg6 mi
5:00 PM91 °FSunny.6 mph52%29.80 "Hg10 mi
4:30 PM91 °FSunny.3 mph52%29.80 "Hg10 mi
4:00 PM91 °FSunny.3 mph52%29.80 "Hg10 mi
3:30 PM91 °FBroken clouds.2 mph49%29.80 "HgN/A
2:30 PM93 °FScattered clouds.5 mph49%29.80 "HgN/A
2:00 PM93 °FScattered clouds.2 mph49%29.83 "HgN/A
1:30 PM93 °FScattered clouds.5 mph53%29.83 "HgN/A
1:00 PM91 °FPassing clouds.5 mph56%29.86 "HgN/A
12:30 PM91 °FScattered clouds.3 mph56%29.89 "HgN/A
11:30 AM91 °FScattered clouds.6 mph56%29.92 "HgN/A
11:00 AM90 °FPartly sunny.6 mph63%29.92 "HgN/A
Weather by CustomWeather, © 2014

See weather overviewHow to use our weather pages